Weather observations for the past three days for
Ralph Wien Memorial Airport
Imperial (Metric)
Date Time (akdt) Wind (mph) Vis. (mi.) Weather Sky Cond. Temperature (ºF) Relative Humidity Wind Chill (°F) Heat Index (°F) Pressure Precipitation (in)
Air Dwpt 6 hour altimeter (in) sea level (mb) 1 hr 3 hr 6 hr
Max. Min.
12 15:53 E 8 10.00 A Few Clouds FEW100 63 48 64 57 58% 29.62 1003.2
12 14:53 Calm 10.00 Fair CLR 61 44.1 54% 29.66 1004.2
12 13:53 Calm 0.00 NULL NULL 61 50 67% 29.68 1005.0
12 12:53 SE 15 10.00 Fair CLR 61 50 67% 29.7 1005.6
12 11:53 SE 16 10.00 Fair CLR 60.1 50 70% 29.7 1005.9
12 10:53 E 16 10.00 Partly Cloudy FEW050 SCT075 57.9 53.1 84% 29.72 1006.3
12 09:53 E 17 10.00 Partly Cloudy SCT085 57.9 53.1 57.9 52 84% 29.72 1006.4
12 08:53 E 14 10.00 Mostly Cloudy BKN090 57 53.1 87% 29.73 1006.8
12 07:53 E 12 10.00 Mostly Cloudy BKN110 57 53.1 87% 29.74 1007.1
12 06:53 E 12 10.00 Fair CLR 54 53.1 97% 29.75 1007.4
12 05:53 E 9 10.00 Overcast OVC080 54 54 100% 29.77 1008.0
12 04:53 E 9 10.00 Overcast OVC080 54 52 93% 29.77 1008.2
12 03:53 NE 6 10.00 Fair CLR 53.1 50 62.1 52 89% 29.78 1008.4
12 02:53 NE 6 10.00 Fair CLR 53.1 51.1 93% 29.79 1008.9
12 01:53 NE 5 10.00 Fair CLR 54 50 87% 29.8 1009.1
12 00:53 NE 3 10.00 Fair CLR 57 48.9 74% 29.81 1009.4
11 23:53 N 3 10.00 Fair CLR 59 48.9 69% 29.81 1009.4
11 22:53 Calm 10.00 Fair CLR 61 48 63% 29.81 1009.6
11 21:53 S 7 10.00 Fair CLR 62.1 45 63 59 54% 29.81 1009.6
11 20:53 SE 7 10.00 Fair CLR 63 46 54% 29.81 1009.5
11 19:53 S 8 10.00 Fair CLR 63 46.9 56% 29.82 1009.6
11 18:53 SW 7 10.00 Fair CLR 61 48 63% 29.82 1009.8
11 17:53 S 10 10.00 A Few Clouds FEW080 61 48 63% 29.82 1009.9
11 16:53 SW 12 10.00 Partly Cloudy SCT070 60.1 50 70% 29.82 1009.8
11 15:53 SE 14 10.00 A Few Clouds FEW046 61 46.9 62.1 55 60% 29.82 1009.7
11 14:53 SE 13 10.00 Fair CLR 61 48 63% 29.82 1009.9
11 13:53 SE 18 10.00 Fair CLR 59 46.9 64% 29.83 1010.0
11 12:53 SE 17 10.00 A Few Clouds FEW038 57.9 46.9 67% 29.82 1009.7
11 11:53 SE 17 10.00 Fair CLR 57 46.9 69% 29.81 1009.4
11 10:53 SE 14 10.00 Fair CLR 55.9 46.9 72% 29.81 1009.4
11 09:53 SE 13 10.00 Mostly Cloudy BKN060 54 48 54 46.9 80% 29.8 1009.2
11 08:53 SE 12 10.00 A Few Clouds FEW100 53.1 50 89% 29.79 1008.8
11 07:53 E 10 10.00 A Few Clouds FEW100 53.1 50 89% 29.78 1008.3
11 06:53 SE 9 10.00 Fair CLR 50 50 100% 47 29.77 1007.9
11 05:53 SE 7 10.00 Fair CLR 48 48 100% 45 29.75 1007.5
11 04:53 SE 8 10.00 Fair CLR 46.9 46.9 100% 44 29.74 1007.3
11 03:53 E 8 10.00 Fair CLR 48 48 55 46.9 100% 45 29.73 1006.7
11 02:53 E 7 10.00 Fair CLR 48 48 100% 45 29.72 1006.3
11 01:53 SE 9 10.00 Fair CLR 52 50 93% 29.71 1006.0
11 00:53 E 8 10.00 Mostly Cloudy BKN060 BKN090 52 51.1 97% 29.7 1005.7
10 23:53 SE 9 10.00 A Few Clouds FEW070 54 51.1 90% 29.69 1005.3
10 22:53 SE 12 10.00 Mostly Cloudy BKN070 55 51.1 87% 29.67 1004.8
10 21:53 SE 14 10.00 Mostly Cloudy FEW039 SCT060 BKN070 55 51.1 55.9 52 87% 29.67 1004.6 0.21
10 20:53 SE 16 10.00 Overcast FEW032 OVC060 54 51.1 90% 29.66 1004.3
10 19:53 SE 20 10.00 Mostly Cloudy BKN060 BKN075 55 51.1 87% 29.65 1004.1 0.01
10 18:53 SE 22 6.00 Light Rain Fog/Mist and Breezy FEW035 SCT050 OVC060 54 52 93% 29.65 1003.9 0.09 0.2
10 17:53 SE 13 3.00 Rain Fog/Mist FEW025 BKN037 OVC065 52 52 100% 29.63 1003.5 0.05
10 16:53 SE 21 G 28 10.00 Mostly Cloudy and Breezy FEW019 BKN043 BKN055 55 52 90% 29.62 1003.1 0.06
10 15:53 SE 17 6.00 Light Rain Fog/Mist FEW013 SCT040 OVC060 53.1 53.1 54 48 100% 29.61 1002.8 0.02 0.08
10 14:53 SE 17 10.00 Mostly Cloudy FEW015 BKN026 BKN041 54 51.1 90% 29.6 1002.4
10 13:53 SE 14 10.00 Overcast SCT013 BKN023 OVC043 53.1 51.1 93% 29.59 1002.1 0.01
10 12:53 SE 13 10.00 Light Rain BKN010 BKN019 OVC055 52 51.1 97% 29.59 1001.9 0.01 0.05
10 11:53 SE 16 10.00 Light Rain FEW011 BKN019 OVC050 52 51.1 97% 29.58 1001.6 0.01
10 10:53 SE 12 6.00 Light Rain Fog/Mist BKN008 OVC015 51.1 51.1 100% 29.57 1001.2 0.03
10 09:53 NE 5 5.00 Light Rain Fog/Mist BKN004 OVC008 48 48 48 43 100% 47 29.56 1000.9 0.02 0.03
10 08:53 N 10 10.00 Light Rain BKN004 OVC010 45 45 100% 40 29.55 1000.7
10 07:53 N 12 3.00 Fog/Mist BKN003 OVC033 44.1 44.1 100% 39 29.55 1000.6
10 06:53 N 10 2.50 Fog/Mist BKN004 BKN009 OVC022 43 43 100% 38 29.54 1000.5 0.01
10 05:53 N 10 10.00 Overcast SCT010 OVC036 43 43 100% 38 29.54 1000.4
10 04:53 N 9 3.00 Fog/Mist OVC013 43 43 100% 38 29.54 1000.4 0.01
10 03:53 N 8 10.00 Overcast BKN023 OVC033 43 42.1 44.1 42.1 97% 39 29.55 1000.5 0.01 0.02
10 02:53 N 9 10.00 Light Rain FEW034 OVC042 43 41 93% 38 29.54 1000.4
10 01:53 N 9 10.00 Light Rain FEW026 BKN060 OVC075 43 39 86% 38 29.54 1000.4 0.01
10 00:53 N 12 10.00 Mostly Cloudy BKN025 43 37.9 82% 37 29.54 1000.2
09 23:53 N 8 10.00 Overcast OVC025 44.1 37.9 79% 40 29.53 1000.1
09 22:53 N 9 10.00 Overcast OVC030 44.1 37.9 79% 40 29.53 999.9
09 21:53 N 8 10.00 Overcast OVC043 44.1 37.9 44.1 41 79% 40 29.53 999.9
09 20:53 N 7 10.00 Overcast OVC042 43 39 86% 39 29.53 999.9
09 19:53 NW 9 10.00 Overcast OVC045 42.1 39 89% 37 29.53 999.9
09 18:53 NW 9 10.00 Light Rain OVC047 41 39 93% 36 29.52 999.8
09 17:53 NW 9 10.00 Overcast BKN045 OVC050 42.1 37.9 85% 37 29.53 999.8
09 16:53 NW 9 10.00 A Few Clouds FEW060 42.1 37 82% 37 29.52 999.7
Date Time (akdt) Wind (mph) Vis. (mi.) Weather Sky Cond. Air Dwpt Max. Min. Relative Humidity Wind Chill (°F) Heat Index (°F) altimeter (in) sea level (mb) 1 hr 3 hr 6 hr
6 hour
Temperature (ºF) Pressure Precipitation (in)